Location: Lavington
(51.2833°N, 1.9833°W)
Time: 02:43:35
(UTC+00:00)

Cosmos 1300 Rocket - Pass Details

Date: 01 June 2020
Orbit: 602 x 627 km, 82.5° (Epoch: 06 July)

Event Time Altitude Azimuth Distance (km) Brightness Sun altitude
Rises 20:56:26 0° 346° (NNW) 2,928 8.2 -5.6°
Reaches altitude 10° 20:58:43 10° 343° (NNW) 2,015 7.4 -5.8°
Maximum altitude 21:03:06 59° 264° (W) 726 4.2 -6.3°
Drops below altitude 10° 21:07:27 10° 185° (S) 1,992 5.8 -6.7°
Enters shadow 21:09:37 - 182° (S) 2,866 6.5 -7.0°
